Location: *
(41.7492°S, 135.4150°W)
Time: 21:51:21
(UTC+00:00)

SR - All Passes

Search period start: 24 May 2022 00:00
Search period end: 03 June 2022 00:00
Orbit: 575 x 878 km, 66.7° (Epoch: 23 May)

Date Brightness Start Highest point End Pass type
(mag) Time Alt. Az. Time Alt. Az. Time Alt. Az.
24 May - 01:25:39 10° N 01:30:27 32° ENE 01:34:56 10° SE daylight
24 May - 03:07:30 10° WNW 03:12:25 36° SW 03:17:00 10° SSE visible
24 May - 10:06:32 10° S 10:09:59 22° SE 10:13:20 10° E night (unlit)
24 May - 11:48:06 10° SW 11:52:07 39° WNW 11:56:03 10° N night (unlit)
25 May - 00:37:27 10° NE 00:40:39 16° ENE 00:43:43 10° ESE daylight
25 May - 02:16:50 10° NW 02:22:14 70° WSW 02:27:11 10° SSE visible
25 May - 04:02:50 10° WSW 04:05:02 13° SW 04:07:11 10° SSW visible
25 May - 09:17:40 10° SSE 09:19:27 12° SE 09:21:12 10° ESE night (unlit)
25 May - 10:57:48 10° SSW 11:02:10 89° ESE 11:06:24 10° NNE night (unlit)
26 May - 01:26:50 10° NNW 01:32:10 60° ENE 01:37:06 10° SE daylight
26 May - 03:10:29 10° W 03:14:30 22° SW 03:18:18 10° S visible
26 May - 10:07:55 10° SSW 10:12:02 40° SE 10:16:01 10° NE night (unlit)
26 May - 11:50:38 10° WSW 11:53:41 19° WNW 11:56:41 10° NNW night (unlit)
27 May - 00:37:37 10° N 00:42:15 29° ENE 00:46:35 10° SE daylight
27 May - 02:19:12 10° WNW 02:24:10 39° SW 02:28:46 10° SSE visible
27 May - 09:18:23 10° S 09:21:40 20° SE 09:24:53 10° E night (unlit)
27 May - 10:59:47 10° SW 11:03:52 43° WNW 11:07:54 10° N night (unlit)
27 May - 23:49:39 10° NE 23:52:27 14° ENE 23:55:09 10° ESE daylight
28 May - 01:28:36 10° NW 01:33:59 76° WSW 01:38:56 10° SSE daylight
28 May - 03:14:16 10° WSW 03:16:44 13° SW 03:19:06 10° SSW visible
28 May - 08:29:45 10° SSE 08:31:07 11° SE 08:32:27 10° ESE night (unlit)
28 May - 10:09:33 10° SSW 10:13:54 80° ESE 10:18:08 10° NNE night (unlit)
29 May - 00:38:41 10° NNW 00:43:56 54° ENE 00:48:48 10° SE daylight
29 May - 02:22:04 10° W 02:26:12 23° SW 02:30:06 10° S visible
29 May - 09:19:42 10° SSW 09:23:44 36° SE 09:27:40 10° ENE night (unlit)
29 May - 11:02:13 10° WSW 11:05:27 21° WNW 11:08:39 10° NNW night (unlit)
29 May - 23:49:34 10° NNE 23:54:01 27° ENE 23:58:12 10° SE daylight
30 May - 01:30:52 10° NW 01:35:53 42° SW 01:40:32 10° SSE daylight
30 May - 08:30:14 10° S 08:33:21 19° SE 08:36:25 10° E night (unlit)
30 May - 10:11:28 10° SW 10:15:37 48° WNW 10:19:42 10° N night (unlit)
30 May - 23:01:56 10° NE 23:04:15 13° ENE 23:06:30 10° E daylight
31 May - 00:40:22 10° NNW 00:45:43 82° WSW 00:50:40 10° SSE daylight
31 May - 02:25:42 10° WSW 02:28:24 14° SW 02:31:00 10° S visible
31 May - 07:42:03 10° SSE 07:42:46 10° SE 07:43:28 10° SE night (unlit)
31 May - 09:21:18 10° SSW 09:25:38 72° ESE 09:29:51 10° NE night (unlit)
31 May - 23:50:32 10° N 23:55:42 49° ENE 00:00:28 10° SE daylight
01 Jun - 01:33:40 10° WNW 01:37:54 25° SW 01:41:53 10° S daylight
01 Jun - 08:31:29 10° SSW 08:35:26 33° SE 08:39:17 10° ENE night (unlit)
01 Jun - 10:13:48 10° WSW 10:17:13 23° WNW 10:20:35 10° NNW night (unlit)
01 Jun - 23:01:33 10° NNE 23:05:47 24° ENE 23:09:48 10° ESE daylight
02 Jun - 00:42:33 10° NW 00:47:36 45° SW 00:52:16 10° SSE daylight
02 Jun - 07:42:05 10° S 07:45:01 17° SE 07:47:54 10° E night (unlit)
02 Jun - 09:23:10 10° SW 09:27:21 54° WNW 09:31:30 10° NNE night (unlit)
02 Jun - 22:14:21 10° NE 22:16:02 11° ENE 22:17:41 10° E daylight
